Temperature
18 18 18 17 17 17 17 17 17 17 17 18 18 18 17 17 17 17 17 17 17 17 17 16 16 16 16 16 16 16 16 16 16 15 15 15 15 15
17 17 17 17 17 17 17 17 17 17 17 17 17 17 17 17 17 17 17 17 17 16 16 16 16 16 16 16 16 16 16 15 15 15 15 15 15 15
17 17 17 17 17 17 17 17 17 17 17 17 17 17 17 17 17 17 16 16 16 16 16 16 16 16 16 16 16 15 15 15 15 15 15 15 14 14
17 17 17 17 17 17 17 17 17 16 16 16 17 17 16 16 16 16 16 16 16 16 16 16 16 16 16 16 15 15 15 15 15 15 14 14 14 14
17 17 17 17 17 17 16 16 16 16 16 16 16 16 16 16 16 16 16 16 16 16 16 16 16 16 15 15 15 15 15 15 14 14 14 14 14 14
16 16 16 16 16 16 16 16 16 16 16 16 16 16 16 16 16 16 16 16 16 15 16 16 15 15 15 15 15 15 14 14 14 14 14 14 14 14
16 16 16 16 16 16 16 16 15 15 15 15 15 15 15 15 15 15 15 15 15 15 15 15 15 15 15 15 14 14 14 14 14 14 13 13 13 13
16 15 15 15 15 15 15 15 15 15 15 15 15 15 15 15 15 15 15 15 14 15 15 15 14 14 14 14 14 14 14 14 14 13 13 13 13 13
15 15 15 15 15 15 15 15 15 15 14 14 14 14 15 14 14 14 14 14 14 14 14 14 14 14 14 14 14 14 13 13 13 13 13 13 13 12
14 14 14 14 14 14 14 14 14 14 14 14 14 14 14 14 14 14 14 14 14 13 13 13 13 14 14 13 13 13 13 13 13 13 13 12 12 12
14 14 14 14 14 14 14 14 14 14 14 14 13 13 13 14 14 14 14 13 13 13 13 13 13 13 13 13 13 13 13 12 12 12 12 12 12 12
14 13 13 13 13 13 13 13 13 13 13 13 13 13 13 13 13 13 13 13 13 13 13 12 12 12 12 12 12 12 12 12 12 12 11 11 11 11
13 13 13 13 13 13 13 13 13 13 13 13 13 13 13 13 13 13 13 12 12 12 12 12 12 12 11 11 12 12 11 11 11 11 11 11 11 11
13 13 12 12 12 12 12 12 12 12 12 12 12 13 13 13 13 12 12 12 12 12 12 12 11 11 11 11 11 11 11 11 11 11 11 11 11 10
12 12 12 12 12 12 12 12 12 12 12 12 12 12 12 12 12 12 12 12 12 11 11 11 11 11 11 11 11 11 11 11 11 11 10 10 10 10
12 12 12 12 12 12 12 12 12 12 12 12 11 11 11 11 11 11 11 11 11 11 11 11 11 11 11 11 11 11 11 10 10 10 10 10 10 10
11 11 11 11 11 11 11 11 11 11 11 11 11 11 11 11 11 11 11 11 11 11 11 11 11 10 10 10 10 10 10 10 10 10 10 10 10 9
11 11 11 11 11 11 11 10 10 11 11 10 10 10 10 10 10 10 10 10 10 10 10 10 10 10 10 10 10 10 10 10 9 9 9 9 9 9
11 10 10 10 10 10 10 10 10 10 10 10 10 10 10 10 10 10 10 9 9 9 9 9 9 9 9 9 9 9 9 9 9 9 9 9 9 9
10 10 10 10 10 10 10 10 10 9 9 9 9 9 9 9 9 9 9 9 9 9 9 9 9 9 8 8 8 9 9 9 9 9 9 8 9 9
10 10 10 10 9 9 9 9 9 9 9 9 9 9 9 9 9 8 8 8 8 8 8 8 8 8 8 8 8 8 8 8 8 8 8 8 8 8
9 9 9 9 9 9 9 9 9 9 9 8 8 8 8 8 8 8 8 8 8 8 8 8 8 8 8 8 8 8 8 8 8 8 8 8 8 8
9 9 9 9 9 9 8 8 8 8 8 8 8 8 8 8 8 8 8 8 8 8 8 8 8 8 8 7 8 7 7 7 8 8 8 8 8 8
Wind_Speed
2 2 2 2 1 2 2 2 3 3 3 4 2 3 3 4 5 6 6 8 9 11 12 14 13 13 13 13 13 12 11 10 9 9 9 8 8 8
1 1 2 2 2 1 1 2 3 4 4 3 3 3 2 3 4 5 7 8 9 10 11 12 12 12 12 12 12 12 11 10 10 9 8 8 8 8
1 1 2 2 2 2 1 1 1 2 3 4 2 2 1 2 2 4 5 5 6 10 10 10 10 11 10 11 11 12 11 11 10 10 9 9 9 8
2 1 2 2 2 2 2 2 2 2 3 4 3 2 3 3 2 2 2 3 4 7 8 8 9 10 10 10 11 11 11 11 10 10 9 9 8 7
2 2 3 2 2 2 2 2 2 2 2 2 3 2 2 1 1 2 1 1 2 3 5 7 7 8 8 9 9 11 11 11 11 10 9 9 8 7
2 2 2 2 3 3 3 3 2 2 1 1 2 2 2 2 1 2 2 2 2 1 2 3 5 7 8 8 8 9 11 11 11 10 10 9 9 8
3 3 3 3 3 2 2 2 2 1 2 2 2 2 2 1 2 2 2 2 2 1 1 1 2 3 4 7 8 9 10 11 11 11 10 10 9 8
3 3 3 2 3 3 4 3 2 2 3 2 2 3 4 3 3 2 1 1 2 2 1 2 1 2 3 4 7 9 10 10 10 10 10 9 9 8
2 2 3 3 3 3 4 4 4 4 5 4 4 4 4 4 3 2 2 2 3 2 1 2 1 3 3 5 7 9 9 8 9 9 8 8 8 8
2 2 3 4 3 3 3 3 4 4 4 4 5 5 5 4 4 4 4 3 2 1 2 2 2 2 3 3 6 8 8 8 7 7 7 7 7 7
3 2 3 4 5 4 2 3 5 6 5 5 5 6 7 6 4 1 1 1 2 2 1 2 2 1 1 2 2 5 7 7 7 7 7 7 7 6
3 3 5 5 6 4 2 3 5 6 5 5 4 5 4 5 4 3 3 3 2 2 2 2 2 1 1 1 1 2 3 5 7 8 8 7 7 4
3 4 4 6 6 5 4 4 6 5 4 4 3 3 2 2 2 1 1 3 3 3 2 2 2 1 2 1 1 2 2 2 4 4 7 8 7 6
3 4 4 6 7 6 4 5 5 3 2 2 2 2 2 2 2 2 2 1 2 3 3 3 2 3 2 1 2 1 1 2 2 3 3 5 6 7
3 5 6 6 6 5 5 5 3 1 1 1 2 3 2 2 2 2 2 2 2 2 2 1 2 2 3 3 2 2 1 2 2 2 2 2 3 3
3 4 5 5 4 4 4 3 2 2 2 2 2 2 2 1 1 1 1 1 1 3 3 2 1 3 2 2 2 2 2 2 2 2 2 2 2 3
2 2 2 2 2 2 2 2 2 1 1 1 1 1 1 1 2 2 1 1 1 1 2 2 2 0 2 3 2 2 2 1 2 2 2 1 2 3
0 1 2 2 3 3 3 2 2 1 1 1 1 1 1 1 1 1 1 0 1 1 1 1 1 1 1 1 2 3 2 2 2 2 2 2 3 3
1 2 3 3 3 2 2 2 2 2 1 1 1 1 1 1 1 1 1 1 1 1 2 1 0 1 1 2 3 2 3 2 2 2 2 3 3 4
1 2 2 2 2 2 2 1 2 1 1 1 1 1 1 1 1 1 1 1 2 2 2 1 1 2 3 3 3 3 3 4 3 3 2 1 1 2
2 2 2 2 1 1 2 2 1 1 1 1 1 1 1 1 1 1 1 2 2 2 2 3 4 4 1 1 1 3 2 3 5 4 3 2 1 1
2 2 2 1 1 1 1 1 1 1 1 1 2 2 2 2 2 2 2 2 3 3 3 3 2 0 0 1 2 3 3 3 2 3 4 5 4 4
3 3 2 2 2 2 1 1 1 2 2 2 2 2 2 2 2 2 3 3 2 3 2 2 1 1 1 2 2 2 3 3 2 1 3 3 6 8
Wind_Direction
256 251 240 253 245 236 215 196 201 246 269 259 258 258 248 232 233 220 227 229 231 235 232 230 229 226 224 224 222 222 221 220 221 225 232 236 237 236
259 281 287 283 281 273 246 222 201 199 240 256 246 255 256 254 232 219 232 234 233 234 233 230 228 227 223 222 218 219 219 217 218 222 227 229 231 231
295 283 293 294 295 297 284 263 233 193 233 270 262 279 265 268 251 229 231 226 233 232 230 229 226 224 224 223 218 217 215 215 217 221 222 223 227 226
289 294 295 297 300 290 285 279 263 231 216 259 281 282 267 272 257 235 239 234 231 233 225 227 227 224 223 224 223 220 217 215 214 215 215 215 217 219
267 268 278 286 295 296 290 284 276 273 222 226 261 260 265 304 311 283 275 298 270 246 229 232 230 229 228 229 226 221 215 213 212 211 210 211 214 218
269 262 265 258 266 281 291 284 278 289 287 258 271 278 275 284 269 268 286 286 276 275 250 238 232 229 230 228 225 219 214 213 211 212 215 216 216 217
283 277 269 262 258 259 275 265 262 264 273 270 273 286 283 279 261 251 258 277 266 248 231 246 221 224 230 227 223 221 218 217 216 216 217 217 216 216
288 296 296 310 311 306 301 282 238 235 246 251 262 264 268 256 255 256 247 272 281 265 196 254 219 229 232 227 226 220 219 218 216 217 218 218 218 219
280 297 306 323 323 313 313 311 294 272 234 221 242 252 254 251 240 252 239 223 238 245 175 266 260 248 251 241 220 214 212 214 217 213 212 214 218 219
277 274 279 297 302 294 299 307 298 289 268 241 237 250 255 248 229 225 225 233 255 263 163 223 264 258 268 249 215 208 207 211 217 216 214 217 222 223
286 292 281 284 293 292 289 289 296 295 287 274 263 269 273 272 253 212 224 202 268 273 202 191 236 256 267 254 230 206 208 211 214 218 218 217 222 227
297 293 279 279 294 298 264 268 280 284 298 311 309 307 299 299 287 219 210 205 230 260 241 189 209 195 279 277 240 223 206 212 213 217 220 222 218 211
275 283 283 293 299 298 272 249 258 265 279 285 292 301 313 319 315 300 220 196 212 242 230 173 196 187 194 253 270 225 204 207 210 221 221 220 216 202
258 269 275 289 298 299 288 281 290 291 279 283 287 298 303 299 294 296 301 270 236 238 241 181 188 188 177 204 251 260 239 223 203 206 215 215 215 217
259 271 281 285 293 297 293 296 304 298 281 279 271 275 271 274 296 320 330 338 343 327 312 216 182 185 180 194 206 210 232 249 209 208 215 215 213 204
292 293 295 293 287 283 298 305 272 243 243 254 261 275 298 319 326 321 306 320 338 330 342 358 241 181 193 204 190 212 211 213 225 221 209 230 222 210
294 315 321 318 319 315 310 298 290 289 269 266 259 285 303 318 314 320 326 328 311 302 322 346 1 332 190 186 198 224 220 226 215 202 197 236 254 234
185 280 282 278 272 275 280 288 293 283 271 261 253 246 267 288 309 328 333 308 295 295 298 300 354 30 22 337 218 207 217 229 230 206 193 204 248 255
184 251 261 262 260 262 260 257 270 275 271 268 261 258 256 274 296 326 332 325 302 281 279 280 262 163 244 288 294 229 210 230 218 217 210 210 226 245
238 255 263 262 259 253 245 249 266 292 290 273 276 276 272 273 288 291 295 288 279 276 283 280 239 217 216 235 256 280 240 208 205 213 225 239 261 267
265 265 260 255 256 248 241 238 234 250 263 260 272 280 279 273 265 264 261 274 269 266 267 268 259 240 214 142 287 293 286 244 217 210 196 186 237 266
248 250 250 246 247 257 249 228 221 236 259 263 269 267 254 241 249 259 252 252 249 249 260 276 279 227 130 205 258 283 301 319 316 240 217 204 192 203
235 237 238 242 245 246 238 230 222 244 254 262 266 266 263 261 261 259 255 245 241 252 261 276 299 289 238 215 231 265 288 302 310 310 300 288 229 235
Height
1537 1536 1536 1536 1536 1535 1535 1534 1534 1532 1530 1530 1529 1528 1527 1526 1525 1525 1525 1524 1525 1525 1525 1525 1525 1526 1526 1526 1526 1526 1527 1527 1527 1527 1527 1527 1527 1527
1534 1534 1534 1533 1533 1532 1532 1531 1531 1530 1528 1527 1526 1525 1524 1523 1523 1522 1521 1521 1521 1522 1522 1522 1521 1522 1523 1523 1523 1523 1523 1523 1524 1524 1524 1524 1524 1524
1532 1531 1531 1530 1530 1529 1529 1528 1528 1527 1525 1524 1523 1522 1521 1520 1520 1519 1519 1519 1518 1518 1518 1518 1518 1518 1518 1519 1519 1519 1519 1520 1520 1520 1520 1520 1521 1521
1529 1529 1528 1528 1527 1526 1526 1525 1524 1523 1522 1521 1520 1519 1518 1517 1517 1516 1516 1516 1515 1515 1514 1514 1514 1514 1515 1515 1515 1515 1516 1516 1516 1516 1516 1517 1517 1517
1526 1525 1525 1524 1524 1523 1522 1521 1520 1520 1519 1517 1516 1516 1515 1515 1514 1513 1513 1512 1512 1511 1511 1510 1510 1510 1511 1511 1511 1512 1512 1512 1513 1513 1513 1513 1513 1513
1523 1522 1522 1521 1520 1520 1519 1518 1517 1516 1515 1514 1513 1512 1512 1512 1511 1510 1509 1509 1508 1507 1507 1506 1506 1507 1507 1508 1508 1508 1508 1509 1509 1509 1509 1509 1509 1510
1520 1519 1518 1517 1517 1516 1515 1514 1514 1513 1512 1511 1510 1509 1509 1508 1507 1506 1506 1505 1504 1504 1503 1503 1503 1503 1503 1504 1504 1504 1505 1505 1505 1505 1505 1506 1506 1506
1517 1516 1515 1514 1513 1513 1512 1511 1510 1509 1508 1507 1506 1506 1505 1505 1504 1503 1502 1501 1500 1501 1500 1500 1500 1499 1500 1500 1500 1501 1501 1501 1501 1502 1502 1502 1502 1502
1513 1513 1512 1511 1510 1509 1508 1507 1506 1506 1505 1505 1503 1502 1502 1501 1501 1500 1499 1498 1497 1497 1497 1496 1496 1495 1496 1496 1496 1496 1497 1497 1498 1498 1498 1498 1499 1499
1510 1509 1508 1507 1506 1505 1504 1503 1502 1502 1501 1501 1500 1499 1499 1498 1497 1496 1495 1495 1494 1494 1493 1492 1492 1492 1492 1492 1492 1492 1493 1493 1493 1494 1494 1495 1495 1495
1507 1506 1505 1504 1503 1502 1501 1499 1498 1498 1497 1497 1496 1495 1495 1494 1493 1493 1491 1490 1489 1489 1489 1489 1488 1488 1488 1488 1488 1488 1489 1489 1490 1490 1491 1491 1491 1492
1504 1503 1501 1500 1499 1498 1497 1496 1494 1493 1493 1492 1492 1491 1490 1490 1489 1489 1488 1487 1486 1485 1485 1485 1484 1484 1484 1484 1484 1485 1485 1485 1486 1486 1487 1487 1488 1488
1500 1498 1498 1497 1496 1495 1493 1492 1491 1490 1489 1488 1488 1487 1486 1485 1485 1485 1484 1484 1483 1482 1482 1482 1481 1481 1481 1481 1481 1482 1482 1482 1482 1483 1483 1484 1484 1484
1495 1494 1493 1493 1492 1491 1490 1489 1488 1487 1486 1485 1484 1483 1482 1482 1481 1481 1480 1480 1480 1479 1479 1479 1478 1478 1477 1477 1477 1478 1478 1478 1479 1479 1480 1480 1480 1480
1491 1490 1490 1489 1488 1487 1486 1485 1484 1483 1482 1481 1480 1480 1479 1478 1477 1477 1476 1476 1476 1475 1475 1475 1475 1474 1474 1473 1473 1474 1474 1474 1475 1475 1476 1476 1476 1476
1488 1487 1486 1485 1484 1483 1482 1481 1481 1480 1479 1478 1477 1476 1475 1474 1474 1473 1472 1472 1471 1471 1471 1471 1471 1471 1470 1470 1470 1470 1470 1471 1471 1472 1472 1473 1473 1473
1484 1483 1482 1481 1481 1480 1479 1478 1477 1476 1476 1474 1473 1472 1472 1471 1470 1470 1469 1468 1467 1466 1467 1467 1467 1467 1467 1467 1466 1466 1467 1467 1468 1468 1468 1469 1469 1469
1481 1479 1479 1478 1477 1476 1475 1474 1473 1473 1472 1471 1470 1469 1468 1467 1467 1466 1466 1465 1465 1464 1464 1463 1463 1463 1463 1464 1464 1463 1463 1464 1464 1465 1465 1465 1465 1466
1478 1476 1475 1475 1474 1473 1472 1471 1470 1470 1469 1468 1467 1466 1465 1464 1463 1463 1462 1462 1462 1461 1461 1461 1461 1460 1459 1459 1460 1461 1461 1460 1461 1461 1461 1461 1461 1462
1474 1473 1472 1471 1471 1470 1469 1468 1467 1467 1466 1465 1464 1463 1462 1461 1461 1460 1459 1459 1459 1458 1458 1458 1458 1457 1457 1457 1456 1457 1458 1458 1457 1457 1457 1458 1458 1459
1471 1470 1469 1469 1468 1467 1467 1466 1465 1464 1463 1462 1461 1460 1459 1459 1458 1457 1456 1456 1456 1455 1455 1455 1455 1455 1455 1454 1453 1452 1453 1454 1455 1454 1454 1454 1454 1454
1468 1467 1466 1466 1465 1464 1463 1463 1462 1461 1460 1459 1458 1457 1456 1455 1454 1453 1453 1452 1452 1452 1452 1452 1452 1452 1451 1450 1449 1448 1449 1449 1451 1451 1451 1451 1450 1450
1465 1464 1463 1463 1462 1461 1460 1459 1458 1458 1457 1456 1455 1454 1453 1452 1451 1450 1449 1449 1448 1448 1448 1447 1447 1447 1447 1447 1446 1446 1446 1446 1446 1446 1447 1448 1448 1448